Stations météo

Publicité
Ouessant, France (7100): Température de l'air & dewpoint: 12.02.2020 07:00:00 - 18.02.2020 07:00:00 (CET)Ouessant, France (7100): Vitesse du vent & gusts: 12.02.2020 07:00:00 - 18.02.2020 07:00:00 (CET)Ouessant, France (7100): Direction du vent: 12.02.2020 07:00:00 - 18.02.2020 07:00:00 (CET)Ouessant, France (7100): reduced air pressure: 12.02.2020 07:00:00 - 18.02.2020 07:00:00 (CET)Ouessant, France (7100): visibility: 12.02.2020 07:00:00 - 18.02.2020 07:00:00 (CET)Ouessant, France (7100): Quantités de précipitations: 12.02.2020 07:00:00 - 18.02.2020 07:00:00 (CET)
Date & Time tt [°C] td [°C] ff [km/h] ff [knt] fx [km/h] fx [knt] dd ppp [hPa] vv [km] rr [mm]
18.02.2020 07:00:00 7,6 5,6 29 16 54 29 W 1027,0 25 0,0
18.02.2020 06:00:00 8,1 5,0 42 23 57 31 W 1026,5 - 0,0
18.02.2020 05:00:00 7,9 6,2 36 20 67 36 W 1026,5 - 1,0
18.02.2020 04:00:00 7,2 5,7 33 18 75 40 W 1026,8 18 0,2
18.02.2020 03:00:00 8,0 5,1 44 24 58 31 W 1026,7 - 0,0
18.02.2020 02:00:00 7,6 5,2 40 21 - - W 1026,9 - -
18.02.2020 01:00:00 7,1 5,2 41 22 58 31 WNW 1026,8 20 0,2
18.02.2020 00:00:00 8,3 4,3 39 21 55 30 W 1026,2 - 0,0
17.02.2020 23:00:00 8,1 3,5 40 22 56 30 W 1026,0 - 0,0
17.02.2020 22:00:00 7,9 3,7 38 21 63 34 W 1025,7 20 0,0
17.02.2020 21:00:00 7,4 4,4 43 23 67 36 W 1025,0 - 0,0
17.02.2020 20:00:00 6,7 4,4 44 24 80 43 W 1024,2 - 0,0
17.02.2020 19:00:00 8,1 4,9 44 24 74 40 WNW 1023,0 15 0,0
17.02.2020 18:00:00 8,2 4,4 50 27 69 37 W 1022,0 - 0,0
17.02.2020 17:00:00 9,3 4,7 51 28 86 46 W 1020,9 - 0,0
17.02.2020 16:00:00 10,5 5,7 47 26 77 42 W 1020,0 15 0,0
17.02.2020 15:00:00 10,4 5,4 49 26 71 38 W 1019,3 - 0,0
17.02.2020 14:00:00 10,1 5,3 50 27 74 40 W 1018,9 - 0,0
17.02.2020 13:00:00 9,2 5,9 40 22 74 40 W 1018,8 15 0,0
17.02.2020 12:00:00 9,9 5,1 50 27 82 44 W 1017,9 - 0,0
17.02.2020 11:00:00 9,7 4,7 55 30 78 42 W 1016,9 - 0,0
17.02.2020 10:00:00 8,9 4,5 53 29 85 46 W 1015,7 12 0,0
17.02.2020 09:00:00 8,4 5,0 47 26 75 41 W 1014,7 - 0,0
17.02.2020 08:00:00 7,5 4,6 54 29 96 52 W 1013,6 - 0,2
17.02.2020 07:00:00 6,3 5,1 59 32 87 47 W 1013,8 - 0,2
17.02.2020 06:00:00 8,1 4,1 45 24 72 39 WSW 1012,7 - 0,0
17.02.2020 05:00:00 8,5 5,4 46 25 70 38 WSW 1012,4 - 0,0
17.02.2020 04:00:00 8,2 5,0 46 25 82 44 WSW 1012,4 15 0,0
17.02.2020 03:00:00 8,6 5,2 41 22 74 40 WSW 1012,7 - 0,0
17.02.2020 02:00:00 8,4 4,8 42 23 69 37 WSW 1012,7 - 0,0
17.02.2020 01:00:00 9,2 3,4 42 23 60 32 WSW 1012,4 20 0,0
17.02.2020 00:00:00 9,0 4,4 36 19 57 31 WSW 1012,2 - 0,0
16.02.2020 23:00:00 8,7 3,5 41 22 61 33 W 1011,6 - 0,0
16.02.2020 22:00:00 8,5 3,9 41 22 69 37 W 1010,8 20 0,0
16.02.2020 21:00:00 8,7 4,3 44 24 68 37 W 1009,9 - 0,0
16.02.2020 20:00:00 8,7 4,3 42 23 72 39 W 1009,1 - 0,0
16.02.2020 19:00:00 8,6 5,5 46 25 76 41 W 1007,7 - 0,0
16.02.2020 18:00:00 9,0 6,3 50 27 74 40 W 1006,3 - 0,0
16.02.2020 17:00:00 9,0 8,4 42 23 79 43 W 1005,2 - 0,0
16.02.2020 16:00:00 9,3 9,3 46 25 75 40 WSW 1004,4 15 0,0
16.02.2020 15:00:00 8,7 8,7 30 16 68 37 WSW 1002,9 - 0,0
16.02.2020 14:00:00 8,3 8,3 51 28 87 47 W 1002,0 - 0,4
16.02.2020 13:00:00 7,6 7,6 - - 108 58 - 1000,0 - -
16.02.2020 12:00:00 12,7 12,7 73 39 118 64 SSW 996,4 - 0,4
16.02.2020 11:00:00 12,5 12,5 74 40 109 59 SSW 996,8 - 0,2
16.02.2020 10:00:00 12,5 12,5 72 39 104 56 SSW 997,2 2,0 0,2
16.02.2020 09:00:00 12,5 12,5 68 37 102 55 SSW 997,7 - 0,2
16.02.2020 08:00:00 12,4 12,4 62 34 97 52 SSW 998,5 - 0,2
16.02.2020 07:00:00 12,4 12,4 71 38 109 59 SSW 998,3 6 0,6
16.02.2020 06:00:00 12,5 12,5 74 40 112 60 SSW 998,5 - 0,8
16.02.2020 05:00:00 12,9 12,7 80 43 119 64 SSW 998,5 - 0,0
16.02.2020 04:00:00 12,9 12,7 80 43 114 61 SSW 999,0 - 0,0
16.02.2020 03:00:00 12,9 12,7 81 44 114 62 SSW 999,8 - 0,0
16.02.2020 02:00:00 12,9 12,7 77 42 110 59 SSW 1000,3 - 0,0
16.02.2020 01:00:00 12,8 12,6 73 39 109 59 SSW 1001,0 6 0,0
16.02.2020 00:00:00 12,7 12,7 69 38 103 56 SSW 1002,1 - 0,0
15.02.2020 23:00:00 12,6 12,6 70 38 105 57 SSW 1002,5 - 0,0
15.02.2020 22:00:00 12,4 12,4 67 36 98 53 SSW 1003,4 6 0,0
15.02.2020 21:00:00 12,3 12,3 67 36 101 55 SSW 1003,5 - 0,0
15.02.2020 20:00:00 12,3 12,3 62 33 96 52 SSW 1004,5 - 0,0
15.02.2020 19:00:00 12,3 12,3 61 33 101 55 SW 1004,4 5 0,0
15.02.2020 18:00:00 12,2 12,2 71 38 112 60 SSW 1003,6 - 0,0
15.02.2020 17:00:00 12,2 12,0 71 38 107 58 SSW 1003,7 - 0,0
15.02.2020 16:00:00 12,1 11,9 68 37 106 57 SSW 1004,5 6 1,0
15.02.2020 15:00:00 12,2 11,9 76 41 105 57 SSW 1005,1 - 1,0
15.02.2020 14:00:00 12,0 11,5 72 39 101 55 SSW 1005,9 - 0,2
15.02.2020 13:00:00 12,4 11,5 - - 100 54 - 1007,1 6 -
15.02.2020 12:00:00 12,3 11,5 69 37 100 54 S 1008,2 - 0,0
15.02.2020 11:00:00 12,3 11,4 69 37 93 50 SSW 1009,0 - 0,0
15.02.2020 10:00:00 12,0 11,4 66 36 86 46 SSW 1010,2 6 0,0
15.02.2020 09:00:00 11,9 11,4 61 33 85 46 S 1010,9 - 0,0
15.02.2020 08:00:00 11,7 11,2 60 33 82 44 SSW 1011,6 - 0,0
15.02.2020 07:00:00 11,7 11,4 58 31 83 45 SSW 1012,1 - 0,0
15.02.2020 06:00:00 11,5 11,0 54 29 77 41 SSW 1012,4 - 0,0
15.02.2020 05:00:00 11,6 11,3 51 28 68 37 SSW 1013,5 - 0,0
15.02.2020 04:00:00 11,7 11,5 46 25 66 35 SSW 1014,5 - 0,0
15.02.2020 03:00:00 11,6 11,4 44 24 61 33 SSW 1015,0 - 0,0
15.02.2020 02:00:00 11,8 11,6 44 24 64 35 SSW 1015,8 - 0,0
15.02.2020 01:00:00 11,7 11,5 43 23 71 38 SSW 1016,1 10 0,0
15.02.2020 00:00:00 11,7 11,5 44 24 61 33 SSW 1016,4 - 0,0
14.02.2020 23:00:00 11,7 11,5 43 23 62 34 SSW 1017,0 - 0,0
14.02.2020 22:00:00 11,7 11,4 44 24 59 32 SSW 1017,3 14 0,0
14.02.2020 21:00:00 11,8 11,5 47 25 64 35 SSW 1017,7 - 0,0
14.02.2020 20:00:00 11,6 11,4 43 23 64 34 SSW 1017,9 - 0,0
14.02.2020 19:00:00 11,5 11,3 44 24 58 32 SSW 1017,8 8 0,0
14.02.2020 18:00:00 11,5 11,3 42 23 61 33 SSW 1017,9 - 0,0
14.02.2020 17:00:00 11,5 11,2 43 23 57 31 SSW 1018,1 - 0,0
14.02.2020 16:00:00 11,8 11,2 43 23 54 29 SSW 1018,4 - 0,0
14.02.2020 15:00:00 11,7 10,9 37 20 59 32 SSW 1018,5 - 0,0
14.02.2020 14:00:00 12,0 10,9 42 23 63 34 SSW 1018,9 - 0,0
14.02.2020 13:00:00 11,6 10,3 46 25 61 33 SSW 1019,3 6 0,0
14.02.2020 12:00:00 11,7 9,9 43 23 60 32 S 1019,3 - 0,0
14.02.2020 11:00:00 11,5 9,2 45 24 56 31 SSW 1019,7 - 0,0
14.02.2020 10:00:00 10,7 8,8 39 21 53 29 SSW 1019,8 6 0,0
14.02.2020 09:00:00 10,3 8,7 36 19 54 29 SW 1019,9 - 0,0
14.02.2020 08:00:00 9,4 8,0 32 17 51 28 SSW 1019,1 - 0,0
14.02.2020 07:00:00 9,5 7,9 35 19 51 28 SW 1019,0 - 0,0
14.02.2020 06:00:00 9,2 7,6 31 17 45 25 SW 1018,5 - 0,0
14.02.2020 05:00:00 9,1 6,9 27 15 40 22 SW 1018,8 - 0,0
14.02.2020 04:00:00 9,4 7,2 28 15 41 22 WSW 1018,6 15 0,0
14.02.2020 03:00:00 8,8 7,1 24 13 41 22 WSW 1018,7 - 0,0
14.02.2020 02:00:00 9,7 8,1 26 14 40 21 WSW 1019,3 - 0,0
14.02.2020 01:00:00 9,7 8,1 23 12 46 25 W 1018,9 8 0,0
14.02.2020 00:00:00 10,1 8,0 29 16 45 25 W 1018,2 - 0,0
13.02.2020 23:00:00 10,0 7,8 34 19 53 29 WNW 1017,5 - 0,0
13.02.2020 22:00:00 10,2 8,1 40 21 65 35 WNW 1016,5 12 0,0
13.02.2020 21:00:00 10,4 7,3 48 26 - - WNW 1015,4 - -
13.02.2020 20:00:00 10,3 7,0 51 28 77 42 WNW 1014,0 - 0,0
13.02.2020 19:00:00 10,5 7,0 55 30 86 47 WNW 1012,5 7 0,0
13.02.2020 18:00:00 10,6 6,7 55 30 92 50 WNW 1011,0 - 0,0
13.02.2020 17:00:00 10,4 7,1 66 35 - - WNW 1008,6 - -
13.02.2020 16:00:00 10,6 8,2 63 34 98 53 WNW 1007,4 5 0,0
13.02.2020 15:00:00 10,7 8,5 69 37 111 60 W 1005,9 - 0,0
13.02.2020 14:00:00 11,3 8,2 72 39 111 60 W 1004,3 - 0,0
13.02.2020 13:00:00 11,3 8,0 78 42 120 65 W 1003,0 7 0,0
13.02.2020 12:00:00 11,2 7,9 80 43 122 66 W 1001,3 - 0,0
13.02.2020 11:00:00 10,6 7,1 81 44 122 66 W 1000,5 - 0,0
13.02.2020 10:00:00 10,4 6,5 77 41 130 70 WSW 1000,2 6 0,0
13.02.2020 09:00:00 10,0 6,2 79 42 115 62 W 1000,0 - 0,0
13.02.2020 08:00:00 9,7 5,1 75 40 110 60 W 1000,0 - 0,0
13.02.2020 07:00:00 9,6 5,4 67 36 103 55 WSW 1000,0 10 0,0
13.02.2020 06:00:00 9,5 5,3 61 33 - - W 1000,6 - -
13.02.2020 05:00:00 9,9 7,7 57 31 90 48 W 1000,2 - 0,0
13.02.2020 04:00:00 10,6 9,8 61 33 94 51 WSW 1000,5 - 1,2
13.02.2020 03:00:00 11,2 11,2 60 33 98 53 SW 1001,3 - 0,0
13.02.2020 02:00:00 10,6 10,6 73 40 97 53 SSW 1002,2 - 0,8
13.02.2020 01:00:00 10,0 9,8 69 37 95 51 S 1004,6 10 0,8
13.02.2020 00:00:00 10,0 9,1 61 33 89 48 S 1006,8 - 0,2
12.02.2020 23:00:00 10,2 7,8 55 30 78 42 S 1009,1 - 0,0
12.02.2020 22:00:00 9,9 6,6 53 29 71 39 SSW 1011,4 20 0,0
12.02.2020 21:00:00 9,7 6,4 50 27 64 34 SSW 1012,9 - 0,0
12.02.2020 20:00:00 9,4 5,8 44 24 - - SSW 1014,2 - -
12.02.2020 19:00:00 9,2 6,3 42 23 58 32 SSW 1015,1 20 0,0
12.02.2020 18:00:00 9,0 7,1 35 19 59 32 SSW 1015,8 - 0,0
12.02.2020 17:00:00 10,0 6,7 32 18 58 31 SSW 1016,7 - 0,0
12.02.2020 16:00:00 10,8 6,7 34 19 55 30 SSW 1017,8 18 0,0
12.02.2020 15:00:00 10,8 6,2 33 18 52 28 SW 1018,5 - 0,0
12.02.2020 14:00:00 10,6 6,2 28 15 49 26 SSW 1019,2 - 0,0
12.02.2020 13:00:00 10,6 5,8 34 18 43 23 SW 1020,7 20 0,0
12.02.2020 12:00:00 10,0 6,0 26 14 38 20 SW 1021,2 - 0,0
12.02.2020 11:00:00 9,7 5,9 25 13 35 19 WSW 1021,5 - 0,0
12.02.2020 10:00:00 - - - - 35 19 - - 20 -
12.02.2020 09:00:00 7,7 4,6 25 13 43 23 W 1021,5 - 0,0
12.02.2020 08:00:00 7,6 4,4 33 18 46 25 W 1021,2 - 0,0
12.02.2020 07:00:00 7,5 4,6 30 16 48 26 W 1021,1 25 0,0

tt = Température de l'air
td = dewpoint
ff = Vitesse du vent
fx = gusts
dd = Direction du vent
ppp = reduced air pressure
vv = visibility
rr = Quantités de précipitations

stations d'obs. à proximité